Regional Weather Roundup
Issued by NWS Grand Forks, ND

Home | Current Version | Previous Version | Graphics & Text | Print | Product List | Glossary On
Versions: 1 2 3 4 5 6 7 8 9 10 11 12 13 14 15 16 17 18 19 20 21 22 23 24 25 26 27 28 29 30 31 32 33 34 35 36 37 38 39 40 41 42 43 44 45 46 47 48 49 50
000
ASUS43 KFGF 230031
RWRFGF
PRAIRIE TO PINES  WEATHER ROUNDUP
NATIONAL WEATHER SERVICE EASTERN NORTH DAKOTA/GRAND FORKS ND
700 PM CDT TUE AUG 22 2017

 **SATELLITE DATA USED TO AUGMENT SKY COVER AT AUTOMATED STATIONS**
 *****  WEATHER ACROSS EASTERN NORTH DAKOTA  *****

CITY           SKY/WX    TMP DP  RH WIND       PRES   REMARKS
GRAND FORKS    FAIR      73  47  39 N10       30.05S
6HR MIN TEMP:  73; 6HR MAX TEMP:  77;

GRAND FRKS AFB FAIR      71  45  39 N6        30.06S
DEVILS LAKE    FAIR      72  42  34 N10       30.10F
6HR MIN TEMP:  71; 6HR MAX TEMP:  74;

FARGO          FAIR      74  43  32 NW14      30.06S
WAHPETON ARPT  FAIR      68  45  42 NW7       30.08S
$$

 ***** WEATHER ACROSS CENTRAL AND WESTERN NORTH DAKOTA  *****

CITY           SKY/WX    TMP DP  RH WIND       PRES   REMARKS
BISMARCK       FAIR      76  43  30 N9        30.12F
6HR MIN TEMP:  74; 6HR MAX TEMP:  78;

MINOT          FAIR      75  40  28 NW7       30.10F
6HR MIN TEMP:  75; 6HR MAX TEMP:  79;

JAMESTOWN      FAIR      70  49  47 N8        30.10F
6HR MIN TEMP:  70; 6HR MAX TEMP:  73;

MINOT AFB      FAIR      76  37  24 W6        30.09F
GARRISON         N/A     76  39  26 N6        30.11F
WILLISTON      FAIR      80  40  23 SW5       30.11F
6HR MIN TEMP:  75; 6HR MAX TEMP:  81;

DICKINSON      FAIR      77  42  28 NE8       30.12F
6HR MIN TEMP:  73; 6HR MAX TEMP:  80;

HETTINGER      FAIR      79  43  27 CALM      30.13F
6HR MIN TEMP:  74; 6HR MAX TEMP:  81;

$$

 *****  OTHER AIRPORT OBSERVATIONS IN OUR AREA  *****

CITY           SKY/WX    TMP DP  RH WIND       PRES   REMARKS
WALHALLA       FAIR      72  68  88 N10       30.07R
GRAFTON AIRPOR FAIR      72  43  35 NW13      30.07S
VALLEY CITY AR   N/A     70  45  40 NW10      30.11F
CANDO          FAIR      70  43  37 NW7       30.12S
CAVALIER APRT  FAIR      72  45  37 N13       30.05S
GWINNER        CLEAR     70  52  52 NW5       30.10S
SHEYENNE NWR     N/A     74  45  34 NW7       29.95S
ROLLA          FAIR      68  45  42 NW6       30.12S
 ***** THE ABOVE OBSERVATIONS ARE NON NWS ARE NOT QUALITY
       CONTROLLED AND MAY MIS-REPORT RAIN FOR SNOW...
$$

  *****  WEATHER ACROSS NORTHERN MINNESOTA  *****

CITY           SKY/WX    TMP DP  RH WIND       PRES   REMARKS
FLAG ISLAND    FAIR      64  50  59 NW12      30.01R
WARROAD        FAIR      63  54  72 NW9G17    30.03R
ROSEAU         FAIR      64  54  68 N9        30.03S
HALLOCK        FAIR      70  48  46 N9        30.04S
THF RVR FALLS  FAIR      70  49  47 N15G23    30.05R
6HR MIN TEMP:  70; 6HR MAX TEMP:  74;

BAUDETTE       FAIR      64  53  67 N9        30.00S
6HR MIN TEMP:  60; 6HR MAX TEMP:  69; 6HR PCP:  0.17;

WASKISH        FAIR      64  54  68 N7        30.01S
CROOKSTON      FAIR      72  43  35 N13       30.05S
STEPHEN NDAWN    N/A     72  48  43 N8          N/A
GREENBUSH NDAW   N/A     66  50  55 N9          N/A
$$
  *****  WEATHER ACROSS CENTRAL AND WEST MINNESOTA  *****

CITY           SKY/WX    TMP DP  RH WIND       PRES   REMARKS
FOSSTON        PTSUNNY   70  41  35 NW15G23   30.05S
BEMIDJI        PTSUNNY   64  52  63 NW9       30.03R
PARK RAPIDS    FAIR      70  44  39 NW15      30.03F
6HR MIN TEMP:  69; 6HR MAX TEMP:  75;

ELBOW LAKE     FAIR      68  49  50 NW8       30.08S
WADENA         FAIR      66  45  45 NW8       30.05S
DETROIT LAKES  FAIR      68  45  42 N9        30.07S
MOORHEAD       FAIR      72  41  33 NW12G18   30.07S
FERGUS FALLS   FAIR      68  50  52 NW7       30.06F
MORRIS MN      FAIR      70  48  46 NW7       30.08S
STAPLES        FAIR      66  43  42 NW9       30.04S
$$
  *****  WEATHER ELSEWHERE ACROSS MINNESOTA  *****

CITY           SKY/WX    TMP DP  RH WIND       PRES   REMARKS
DULUTH         FAIR      63  54  72 NW15      29.96S
6HR MIN TEMP:  59; 6HR MAX TEMP:  68; 6HR PCP:  0.01;

INTRNTL FALLS  FAIR      63  48  58 NW12      29.97R
6HR MIN TEMP:  60; 6HR MAX TEMP:  67; 6HR PCP: TRACE;

ELY            FAIR      57  55  94 W3        29.94S
CLOQUET        PTSUNNY   64  48  55 NW7       29.98R
WHEATON        FAIR      70  48  46 W6        30.10F
BRAINERD       FAIR      70  42  36 NW12      30.02S
6HR MIN TEMP:  68; 6HR MAX TEMP:  73;

HIBBING        FAIR      59  54  83 NW12      29.97R
6HR MIN TEMP:  57; 6HR MAX TEMP:  65; 6HR PCP:  0.06;

ALEXANDRIA     FAIR      69  47  45 NW12      30.08F
6HR MIN TEMP:  69; 6HR MAX TEMP:  73;

SAINT CLOUD    FAIR      71  47  42 NW10      30.03F
6HR MIN TEMP:  70; 6HR MAX TEMP:  74;

MINNEAPOLIS    FAIR      71  47  42 NW12G25   30.03F
6HR MIN TEMP:  71; 6HR MAX TEMP:  76;

$$

  *****  WEATHER ACROSS SOUTH DAKOTA  *****

CITY           SKY/WX    TMP DP  RH WIND       PRES   REMARKS
SIOUX FALLS    FAIR      73  50  44 N8        30.13F
6HR MIN TEMP:  73; 6HR MAX TEMP:  76;

BROOKINGS      FAIR      70  50  49 NW7       30.13F
WATERTOWN      FAIR      70  46  42 NW10      30.12F
6HR MIN TEMP:  70; 6HR MAX TEMP:  72;

HURON          FAIR      75  49  39 NE6       30.12F
6HR MIN TEMP:  74; 6HR MAX TEMP:  78;

SISSETON         N/A     72  51  47 N9        30.09S
ABERDEEN       FAIR      76  44  32 NW12      30.11F
6HR MIN TEMP:  75; 6HR MAX TEMP:  78;

MITCHELL       FAIR      76  51  41 NE5       30.13F
PIERRE         FAIR      78  46  32 E6        30.11F
6HR MIN TEMP:  73; 6HR MAX TEMP:  81;

MOBRIDGE       FAIR      77  51  40 E5        30.11S
RAPID CITY     FAIR      83  47  28 SE14      30.10F
6HR MIN TEMP:  79; 6HR MAX TEMP:  85;

$$

  *****  SOME WEATHER IN NEARBY STATES *****

CITY           SKY/WX    TMP DP  RH WIND       PRES   REMARKS
GLASGOW MT     FAIR      84  34  16 S6        30.05F
6HR MIN TEMP:  77; 6HR MAX TEMP:  85;

GREAT FALLS MT FAIR      88  31  13 NW7       30.05F
6HR MIN TEMP:  78; 6HR MAX TEMP:  89;

CHEYENNE WY    FAIR      76  52  43 S14G24    30.26F
6HR MIN TEMP:  67; 6HR MAX TEMP:  77;

SCOTTSBLUFF NE FAIR      84  49  29 SE12      30.14F
6HR MIN TEMP:  79; 6HR MAX TEMP:  85;

OMAHA NE       FAIR      75  54  47 NW8       30.13F
6HR MIN TEMP:  75; 6HR MAX TEMP:  78;

DES MOINES IA  FAIR      74  49  41 NW10      30.08F
6HR MIN TEMP:  74; 6HR MAX TEMP:  78;

DAVENPORT IA   FAIR      71  52  50 NW10      30.04R
6HR MIN TEMP:  71; 6HR MAX TEMP:  77;

CHICAGO IL     FAIR      76  49  38 NW15      29.94R
6HR MIN TEMP:  76; 6HR MAX TEMP:  82;

EAU CLAIRE WI  FAIR      70  47  43 NW9       29.99S
6HR MIN TEMP:  70; 6HR MAX TEMP:  74;

LA CROSSE WI   PTCLDY    75  50  41 W12       29.99F
$$

  *****  SOME NATIONAL WEATHER *****

CITY           SKY/WX    TMP DP  RH WIND       PRES   REMARKS
LA GUARDIA NY  MOCLDY    84  75  74 S14       29.78S HX  92
6HR MIN TEMP:  84; 6HR MAX TEMP:  91;

RALEIGH NC     FAIR      88  70  55 S8        29.94S HX  93
6HR MIN TEMP:  88; 6HR MAX TEMP:  96;

ATLANTA GA     FAIR      87  68  52 W8        30.01S HX  90
6HR MIN TEMP:  87; 6HR MAX TEMP:  93;

NEW ORLEANS LA MOCLDY    86  75  69 NW5       29.99F HX  95
6HR MIN TEMP:  77; 6HR MAX TEMP:  89; 6HR PCP:  0.04;

OKLAHOMA CITY  CLOUDY    84  65  52 NE25G37   30.00S THUNDER
6HR MIN TEMP:  84; 6HR MAX TEMP:  92;

ALBUQUERQUE NM PTSUNNY   86  52  30 W7        30.21F
6HR MIN TEMP:  79; 6HR MAX TEMP:  87;

SALT LAKE CITY PTSUNNY   87  44  22 E7        30.13S
6HR MIN TEMP:  85; 6HR MAX TEMP:  91;

LOS ANGELES CA FAIR      73  64  73 SW18      29.94F
6HR MIN TEMP:  72; 6HR MAX TEMP:  75;

BOISE ID       FAIR      92  43  18 NW6       30.00F
6HR MIN TEMP:  81; 6HR M



USA.gov is the U.S. government's official web portal to all federal, state and local government web resources and services.